Rbgn^[z[y[W
メイン
   新天体発見情報
     Comet P/2004 V3 = 2023 O1 (Siding Spring)
投稿するにはまず登録を

フラット表示 前のトピック | 次のトピック
投稿者 スレッド
佐藤裕久
投稿日時: 2023-7-31 12:33
モデレータ
登録日: 2005-6-12
居住地: 日本
投稿: 2661
オンライン
Comet P/2004 V3 = 2023 O1 (Siding Spring)

Martin Masek (プラハ物理学研究所)の通報によると、7月18日〜19日、アルゼンチン Mendoza州 
MalargueeにあるPierre Auger天文台のFRAM – F(/Ph)otometric Robotic Atmospheric Monitor 
0.3-m f/6.8反射望遠鏡で得たCC画像から、恒星状のP/2004 V3 IAUC 8429, 8438を参照)を検出した。
佐藤英貴氏(東京都文京区)は、6月19日、オーストラリア NSW, Siding Spring,の0.51-m f/6.8 
アストログラフ (遠隔操作)で発見前に観測した(120-秒露出8枚のスタック,強く集光した8" のコマ
が見えるが尾はない。4".9の円形範囲で測定した光度は19.0等であった)。
NK 1246R (= ICQ Comet Handbook 2020)の中野主一氏の予報に対する修正値は、Delta(T) = 
-3.20 daysであった。
MPC 55521のG. V. Williamsの予報に対する修正値は、Delta(T) = -2.43 daysであった。
彗星年表2021の佐藤裕久の参考軌道に対する修正値は、Delta(T) = -0.87 dayであった。

検出位置は次のとおり、

     2023 UT             R.A. (2000) Decl.       Mag.   Observer
     July 18.23859   23 30 14.56   -60 06 07.4   19.6   Masek
          18.25445   23 30 13.62   -60 06 11.8   19.7     "
          19.38317   23 29 14.32   -60 10 41.4   19.7     "
          19.39082   23 29 13.87   -60 10 43.3   19.6     "
          19.37394   23 29 14.80   -60 10 39.0   19.6     "
          19.40007   23 29 13.37   -60 10 45.0   19.6     "
          19.40776   23 29 12.97   -60 10 47.4   19.7     "

佐藤英貴氏の検出前観測位置は次のとおり、

     2023 UT             R.A. (2000) Decl.       Mag.   Observer
     June 19.77276   23 40 02.60   -58 01 27.6          Sato
          19.77886   23 40 02.64   -58 01 29.4   19.0     "

MPCの連結軌道要素、位置推算表は次のとおり、

Orbital elements:
    P/2004 V3 (Siding Spring)                                                   
Epoch 2023 Sept. 13.0 TT = JDT 2460200.5                                        
T 2023 Nov. 21.00555 TT                                 Rudenko                 
q   3.9499057            (2000.0)            P               Q                  
n   0.05183175     Peri.  322.54621     +0.76586254     +0.64089044             
a   7.1242439      Node   356.12563     -0.21720742     +0.18160100             
e   0.4455684      Incl.   50.44449     -0.60520700     +0.74584216             
P  19.0                                                                         
From 67 observations 2004 Nov. 3-2023 July 19, mean residual 0".7.              
                                                                                
Ephemeris:
Date    TT    R. A. (2000) Decl.     Delta      r    Elong.  Phase   m1
2023 06 27    23 40 09.7 -58 31 54   3.5031  4.0394   115.0    13.2  20.3
...
2023 07 12    23 34 50.0 -59 39 34   3.3842  4.0224   122.5    12.3  20.2
...
2023 07 20    23 28 41.0 -60 13 04   3.3338  4.0140   125.8    11.8  20.2
...
2023 07 26    23 22 33.5 -60 34 11   3.3030  4.0080   127.9    11.5  20.1
2023 07 27    23 21 25.0 -60 37 14   3.2985  4.0070   128.2    11.5  20.1
2023 07 28    23 20 14.6 -60 40 07   3.2942  4.0061   128.5    11.4  20.1
...
2023 08 03    23 12 32.7 -60 53 49   3.2721  4.0005   130.0    11.2  20.1
...
2023 08 11    23 00 47.2 -61 00 22   3.2535  3.9935   131.1    11.0  20.1
...
2023 08 26    22 36 16.5 -60 26 49   3.2547  3.9817   130.1    11.2  20.1

(MPEC 2023-O89、CBET 5282、oaa-comet 5313)

フラット表示 前のトピック | 次のトピック

題名 投稿者 日時
 » Comet P/2004 V3 = 2023 O1 (Siding Spring) 佐藤裕久 2023-7-31 12:33

投稿するにはまず登録を
 
© 1999 Tsutomu Seki.